Inquirer Daily News

Weather

Get conditions and forecasts for any City, State, ZIP code or Country:  
Northeast Philadelphia, PA
on Saturday, January 5, 2013

Saturday
Previous Day Next Day
Daily Summary
 ActualAverage (KTTN)Record (KTTN)
Temperature
Mean Temperature °F 31°F  
Max Temperature 41°F 39°F 64°F (1950)
Min Temperature 28°F 23°F -3°F (1904)
Degree Days
Heating Degree Days 30 34  
Month to date heating degree days 169  
Since 1 July heating degree days 2064  
Cooling Degree Days 0 0  
Month to date cooling degree days 0  
Year to date cooling degree days 0  
Moisture
Dew Point 20°F   
Average Humidity 56    
Maximum Humidity 72    
Minimum Humidity 43    
Precipitation
Precipitation 0.00 in 0.13 in 1.45 in (1934)
Month to date precipitation 0.57  
Year to date precipitation 0.57  
Wind
Wind Speed 7 mph   
Max Wind Speed 15 mph   
Max Gust Speed 21 mph   
Visibility 10 miles   
Events     

Key: T is trace of precipitation, MM is missing value
Source: NWS Daily Summary
Time(EST)TemperatureDew PointHumidity Pressure Visibility Wind DirectionWind SpeedGust SpeedPrecipitationEvents Conditions
12:54 AM 32.0°F 18.0°F 56% 30.10 in 10.0 miles West 6.9 mph - N/A   Clear
1:54 AM 32.0°F 17.6°F 55% 30.12 in 10.0 miles West 6.9 mph - N/A   Clear
2:54 AM 28.9°F 18.0°F 64% 30.14 in 10.0 miles WSW 5.8 mph - N/A   Clear
3:54 AM 30.0°F 18.0°F 61% 30.17 in 10.0 miles WNW 5.8 mph - N/A   Clear
4:54 AM 30.9°F 18.0°F 59% 30.21 in 10.0 miles WNW 6.9 mph - N/A   Clear
5:54 AM 30.9°F 18.0°F 59% 30.24 in 10.0 miles WNW 12.7 mph - N/A   Clear
6:54 AM 30.0°F 18.0°F 61% 30.28 in 10.0 miles West 5.8 mph - N/A   Clear
7:54 AM 30.9°F 18.0°F 59% 30.30 in 10.0 miles West 11.5 mph - N/A   Clear
8:54 AM 33.1°F 18.0°F 54% 30.31 in 10.0 miles West 10.4 mph - N/A   Clear
9:54 AM 36.0°F 19.0°F 50% 30.34 in 10.0 miles West 15.0 mph - N/A   Clear
10:54 AM 37.9°F 19.9°F 48% 30.36 in 10.0 miles WNW 10.4 mph 20.7 mph N/A   Clear
11:54 AM 39.0°F 21.0°F 49% 30.33 in 10.0 miles NW 10.4 mph - N/A   Clear
12:54 PM 41.0°F 21.0°F 45% 30.30 in 10.0 miles NNW 11.5 mph - N/A   Clear
1:54 PM 41.0°F 19.9°F 43% 30.29 in 10.0 miles NW 11.5 mph - 0.00 in   Clear
2:54 PM 41.0°F 21.0°F 45% 30.29 in 10.0 miles West 4.6 mph - 0.00 in   Clear
3:54 PM 39.9°F 21.0°F 47% 30.29 in 10.0 miles West 9.2 mph - N/A   Clear
4:54 PM 36.0°F 21.0°F 55% 30.29 in 10.0 miles West 5.8 mph - N/A   Clear
5:54 PM 37.4°F 19.4°F 48% 30.30 in 10.0 miles WNW 3.5 mph - N/A   Clear
6:54 PM 33.1°F 21.0°F 61% 30.31 in 10.0 miles West 5.8 mph - N/A   Clear
7:54 PM 30.9°F 21.0°F 67% 30.28 in 10.0 miles Calm Calm - N/A   Clear
8:54 PM 30.9°F 21.0°F 67% 30.30 in 10.0 miles Calm Calm - N/A   Clear
9:54 PM 30.0°F 21.9°F 72% 30.26 in 10.0 miles Calm Calm - N/A   Clear
10:54 PM 33.1°F 23.0°F 66% 30.26 in 9.0 miles Calm Calm - N/A   Clear
11:54 PM 34.0°F 23.0°F 64% 30.25 in 9.0 miles Calm Calm - N/A   Overcast
Astronomy
Sunrise:07:22 AM (EST) Moon Rise:12:26 AM (EST)1/5
Sunset:04:49 PM (EST) Moon Set:11:37 AM (EST)1/5
Moon Phase
Jan. 05 Jan. 11 Jan. 18 Jan. 26 Feb. 03

Copyright © 2014 The Weather Underground, Inc.